Previsão horária em a/p Chisinau International Airport

Hoje, 28 Outubro, Quarta-feira

Tempo Temperatura Precipitação Vento Pressão Humidade
00:00 +13°C° 0 mm 0 m/s 759 mmHg 89%
01:00 +13°C° 0 mm 0 m/s 759 mmHg 90%
02:00 +12°C° 0 mm 0 m/s 759 mmHg 90%
03:00 +12°C° 0 mm 0 m/s 759 mmHg 91%
04:00 +13°C° 0 mm 1 m/s 759 mmHg 92%
05:00 +13°C° 0 mm 1 m/s 759 mmHg 93%
06:00 +13°C° 0 mm 1 m/s 759 mmHg 91%
07:00 +14°C° 0 mm 1 m/s 759 mmHg 90%
08:00 +14°C° 0 mm 1 m/s 760 mmHg 88%
09:00 +15°C° 0 mm 2 m/s 760 mmHg 82%
10:00 +16°C° 0 mm 2 m/s 760 mmHg 77%
11:00 +17°C° 0 mm 2 m/s 760 mmHg 71%
12:00 +17°C° 0 mm 2 m/s 759 mmHg 68%
13:00 +19°C° 0 mm 1 m/s 759 mmHg 64%
14:00 +19°C° 0 mm 1 m/s 759 mmHg 61%
15:00 +19°C° 0 mm 1 m/s 759 mmHg 64%
16:00 +18°C° 0 mm 1 m/s 759 mmHg 67%
17:00 +15°C° 0 mm 0 m/s 759 mmHg 70%
18:00 +16°C° 0 mm 1 m/s 759 mmHg 73%
19:00 +15°C° 0 mm 1 m/s 759 mmHg 75%
20:00 +15°C° 0 mm 1 m/s 759 mmHg 78%
21:00 +14°C° 0 mm 1 m/s 759 mmHg 79%
22:00 +14°C° 0 mm 1 m/s 759 mmHg 81%
23:00 +13°C° 0 mm 0 m/s 759 mmHg 83%

Amanhã, 29 Outubro, Quinta-feira

Tempo Temperatura Precipitação Vento Pressão Humidade
00:00 +12°C° 0 mm 0 m/s 759 mmHg 83%
01:00 +12°C° 0 mm 0 m/s 758 mmHg 84%
02:00 +12°C° 0 mm 0 m/s 758 mmHg 84%
03:00 +12°C° 0 mm 0 m/s 758 mmHg 85%
04:00 +11°C° 0 mm 0 m/s 758 mmHg 86%
05:00 +12°C° 0 mm 1 m/s 758 mmHg 87%
06:00 +12°C° 0 mm 0 m/s 758 mmHg 86%
07:00 +12°C° 0 mm 0 m/s 758 mmHg 84%
08:00 +12°C° 0 mm 0 m/s 758 mmHg 83%
09:00 +13°C° 0 mm 0 m/s 758 mmHg 77%
10:00 +16°C° 0 mm 1 m/s 758 mmHg 71%
11:00 +18°C° 0 mm 1 m/s 758 mmHg 65%
12:00 +19°C° 0 mm 1 m/s 758 mmHg 62%
13:00 +18°C° 0 mm 2 m/s 757 mmHg 59%
14:00 +19°C° 0 mm 2 m/s 757 mmHg 55%
15:00 +18°C° 0 mm 2 m/s 757 mmHg 59%
16:00 +17°C° 0 mm 2 m/s 757 mmHg 62%
17:00 +16°C° 0 mm 2 m/s 757 mmHg 66%
18:00 +16°C° 0 mm 2 m/s 757 mmHg 69%
19:00 +15°C° 0 mm 2 m/s 757 mmHg 71%
20:00 +14°C° 0 mm 2 m/s 757 mmHg 74%
21:00 +14°C° 0 mm 1 m/s 757 mmHg 77%
22:00 +14°C° 0 mm 1 m/s 757 mmHg 79%
23:00 +13°C° 0 mm 1 m/s 757 mmHg 81%

Depois de amanhã, 30 Outubro, Sexta-feira

Tempo Temperatura Precipitação Vento Pressão Humidade
00:00 +13°C° 0 mm 1 m/s 757 mmHg 82%
01:00 +12°C° 0 mm 1 m/s 757 mmHg 84%
02:00 +12°C° 0 mm 1 m/s 757 mmHg 86%
03:00 +12°C° 0 mm 1 m/s 757 mmHg 86%
04:00 +12°C° 0 mm 1 m/s 757 mmHg 87%
05:00 +12°C° 0 mm 1 m/s 757 mmHg 87%
06:00 +12°C° 0 mm 1 m/s 757 mmHg 84%
07:00 +13°C° 0 mm 1 m/s 757 mmHg 82%
08:00 +13°C° 0 mm 1 m/s 757 mmHg 79%
09:00 +13°C° 0.1 mm 2 m/s 757 mmHg 79%
10:00 +12°C° 0.1 mm 3 m/s 757 mmHg 79%
11:00 +13°C° 0.1 mm 5 m/s 758 mmHg 79%
12:00 +11°C° 0.5 mm 6 m/s 758 mmHg 80%
13:00 +11°C° 0.5 mm 6 m/s 757 mmHg 80%
14:00 +10°C° 0.5 mm 7 m/s 757 mmHg 81%
15:00 +10°C° 0.1 mm 7 m/s 758 mmHg 80%
16:00 +10°C° 0.1 mm 7 m/s 758 mmHg 80%
17:00 +9°C° 0.1 mm 7 m/s 758 mmHg 79%
18:00 +9°C° 0.1 mm 7 m/s 758 mmHg 76%
19:00 +9°C° 0.1 mm 7 m/s 759 mmHg 73%
20:00 +9°C° 0.1 mm 7 m/s 759 mmHg 71%
21:00 +8°C° 0 mm 6 m/s 759 mmHg 72%
22:00 +8°C° 0 mm 6 m/s 759 mmHg 73%
23:00 +7°C° 0 mm 5 m/s 759 mmHg 74%

31 Outubro, Sábado

Tempo Temperatura Precipitação Vento Pressão Humidade
00:00 +7°C° 0 mm 4 m/s 759 mmHg 75%
01:00 +6°C° 0 mm 4 m/s 759 mmHg 77%
02:00 +7°C° 0 mm 3 m/s 759 mmHg 79%
03:00 +7°C° 0 mm 3 m/s 759 mmHg 80%
04:00 +7°C° 0 mm 3 m/s 759 mmHg 80%
05:00 +7°C° 0 mm 3 m/s 759 mmHg 81%
06:00 +7°C° 0 mm 3 m/s 759 mmHg 79%
07:00 +7°C° 0 mm 3 m/s 759 mmHg 77%
08:00 +7°C° 0 mm 4 m/s 758 mmHg 75%
09:00 +8°C° 0 mm 4 m/s 759 mmHg 70%
10:00 +9°C° 0 mm 5 m/s 759 mmHg 65%
11:00 +10°C° 0 mm 5 m/s 759 mmHg 60%
12:00 +10°C° 0 mm 6 m/s 759 mmHg 59%
13:00 +10°C° 0 mm 6 m/s 759 mmHg 57%
14:00 +11°C° 0 mm 6 m/s 759 mmHg 56%
15:00 +10°C° 0 mm 6 m/s 759 mmHg 60%
16:00 +10°C° 0 mm 5 m/s 759 mmHg 64%
17:00 +10°C° 0 mm 4 m/s 759 mmHg 68%
18:00 +10°C° 0.1 mm 4 m/s 759 mmHg 73%
19:00 +8°C° 0.1 mm 5 m/s 759 mmHg 77%
20:00 +8°C° 0.1 mm 5 m/s 760 mmHg 81%
21:00 +8°C° 1.1 mm 4 m/s 760 mmHg 84%
22:00 +8°C° 1.1 mm 4 m/s 760 mmHg 87%
23:00 +10°C° 1.1 mm 4 m/s 760 mmHg 91%

1 Novembro, Domingo

Tempo Temperatura Precipitação Vento Pressão Humidade
00:00 +10°C° 0.8 mm 4 m/s 760 mmHg 89%
01:00 +9°C° 0.8 mm 5 m/s 760 mmHg 87%
02:00 +10°C° 0.8 mm 6 m/s 761 mmHg 85%
03:00 +9°C° 0.1 mm 5 m/s 761 mmHg 85%
04:00 +9°C° 0.1 mm 5 m/s 761 mmHg 85%
05:00 +8°C° 0.1 mm 5 m/s 761 mmHg 85%
06:00 +8°C° 0 mm 5 m/s 762 mmHg 85%
07:00 +10°C° 0 mm 4 m/s 762 mmHg 84%
08:00 +10°C° 0 mm 4 m/s 762 mmHg 84%
09:00 +10°C° 0 mm 4 m/s 763 mmHg 80%
10:00 +10°C° 0 mm 5 m/s 763 mmHg 76%
11:00 +12°C° 0 mm 5 m/s 763 mmHg 72%
12:00 +10°C° 0.1 mm 5 m/s 763 mmHg 75%
13:00 +10°C° 0.1 mm 5 m/s 763 mmHg 79%
14:00 +10°C° 0.1 mm 5 m/s 763 mmHg 82%
15:00 +10°C° 0.1 mm 5 m/s 763 mmHg 82%
16:00 +9°C° 0.1 mm 5 m/s 763 mmHg 82%
17:00 +9°C° 0.1 mm 5 m/s 764 mmHg 82%
18:00 +9°C° 0.1 mm 5 m/s 764 mmHg 80%
19:00 +9°C° 0.1 mm 5 m/s 764 mmHg 79%
20:00 +9°C° 0.1 mm 5 m/s 764 mmHg 78%
21:00 +10°C° 0 mm 4 m/s 764 mmHg 77%
22:00 +10°C° 0 mm 4 m/s 764 mmHg 76%
23:00 +10°C° 0 mm 4 m/s 764 mmHg 75%

2 Novembro, Segunda-feira

Tempo Temperatura Precipitação Vento Pressão Humidade
00:00 +10°C° 0 mm 4 m/s 764 mmHg 75%
01:00 +10°C° 0 mm 4 m/s 764 mmHg 75%
02:00 +10°C° 0 mm 4 m/s 764 mmHg 74%
03:00 +10°C° 0 mm 4 m/s 764 mmHg 75%
04:00 +10°C° 0 mm 4 m/s 764 mmHg 76%
05:00 +10°C° 0 mm 3 m/s 764 mmHg 76%
06:00 +10°C° 0 mm 3 m/s 765 mmHg 77%
07:00 +10°C° 0 mm 4 m/s 765 mmHg 77%
08:00 +10°C° 0 mm 4 m/s 765 mmHg 77%
09:00 +11°C° 0 mm 4 m/s 765 mmHg 73%
10:00 +10°C° 0 mm 5 m/s 765 mmHg 68%
11:00 +12°C° 0 mm 5 m/s 765 mmHg 63%
12:00 +13°C° 0 mm 5 m/s 765 mmHg 61%
13:00 +13°C° 0 mm 5 m/s 765 mmHg 59%
14:00 +14°C° 0 mm 5 m/s 764 mmHg 57%
15:00 +13°C° 0 mm 5 m/s 764 mmHg 60%
16:00 +12°C° 0 mm 5 m/s 764 mmHg 64%
17:00 +11°C° 0 mm 4 m/s 764 mmHg 67%
18:00 +10°C° 0 mm 5 m/s 764 mmHg 69%
19:00 +10°C° 0 mm 5 m/s 764 mmHg 72%
20:00 +9°C° 0 mm 5 m/s 765 mmHg 74%
21:00 +9°C° 0 mm 5 m/s 764 mmHg 75%
22:00 +9°C° 0 mm 5 m/s 764 mmHg 76%
23:00 +8°C° 0 mm 5 m/s 764 mmHg 77%
Mostrar mais